"Time","Value","Approval","myLocation"
"2023-05-06 00:00",0.484573532676111,"Approved","OW411"
"2023-05-06 01:00",0.480575256251224,"Approved","OW411"
"2023-05-06 02:00",0.483576979826337,"Approved","OW411"
"2023-05-06 03:00",0.487578703401449,"Approved","OW411"
"2023-05-06 04:00",0.485580426976562,"Approved","OW411"
"2023-05-06 05:00",0.481582150551675,"Approved","OW411"
"2023-05-06 06:00",0.484583874126787,"Approved","OW411"
"2023-05-06 07:00",0.4855855977019,"Approved","OW411"
"2023-05-06 08:00",0.484587321277012,"Approved","OW411"
"2023-05-06 09:00",0.485589044852125,"Approved","OW411"
"2023-05-06 10:00",0.482590768427238,"Approved","OW411"
"2023-05-06 11:00",0.48159249200235,"Approved","OW411"
"2023-05-06 12:00",0.480594215577463,"Approved","OW411"
"2023-05-06 13:00",0.480595939152576,"Approved","OW411"
"2023-05-06 14:00",0.480597662727688,"Approved","OW411"
"2023-05-06 15:00",0.478599386302801,"Approved","OW411"
"2023-05-06 16:00",0.481601109877913,"Approved","OW411"
"2023-05-06 17:00",0.481602833453026,"Approved","OW411"
"2023-05-06 18:00",0.484604557028139,"Approved","OW411"
"2023-05-06 19:00",0.488606280603251,"Approved","OW411"
"2023-05-06 20:00",0.490608004178364,"Approved","OW411"
"2023-05-06 21:00",0.491609727753476,"Approved","OW411"
"2023-05-06 22:00",0.490611451328589,"Approved","OW411"
"2023-05-06 23:00",0.489613174903702,"Approved","OW411"
"2023-05-07 00:00",0.485614898478814,"Approved","OW411"
"2023-05-07 01:00",0.482616622053927,"Approved","OW411"
"2023-05-07 02:00",0.47861834562904,"Approved","OW411"
"2023-05-07 03:00",0.473620069204152,"Approved","OW411"
"2023-05-07 04:00",0.467621792779265,"Approved","OW411"
"2023-05-07 05:00",0.464623516354377,"Approved","OW411"
"2023-05-07 06:00",0.46462523992949,"Approved","OW411"
"2023-05-07 07:00",0.459626963504603,"Approved","OW411"
"2023-05-07 08:00",0.458628687079715,"Approved","OW411"
"2023-05-07 09:00",0.457630410654828,"Approved","OW411"
"2023-05-07 10:00",0.455632134229941,"Approved","OW411"
"2023-05-07 11:00",0.453633857805053,"Approved","OW411"
"2023-05-07 12:00",0.452635581380166,"Approved","OW411"
"2023-05-07 13:00",0.450637304955278,"Approved","OW411"
"2023-05-07 14:00",0.448639028530391,"Approved","OW411"
"2023-05-07 15:00",0.447640752105504,"Approved","OW411"
"2023-05-07 16:00",0.447642475680616,"Approved","OW411"
"2023-05-07 17:00",0.448644199255729,"Approved","OW411"
"2023-05-07 18:00",0.450645922830842,"Approved","OW411"
"2023-05-07 19:00",0.453647646405954,"Approved","OW411"
"2023-05-07 20:00",0.456649369981067,"Approved","OW411"
"2023-05-07 21:00",0.458651093556179,"Approved","OW411"
"2023-05-07 22:00",0.458652817131292,"Approved","OW411"
"2023-05-07 23:00",0.454654540706405,"Approved","OW411"
"2023-05-08 00:00",0.454656264281517,"Approved","OW411"
"2023-05-08 01:00",0.44865798785663,"Approved","OW411"
"2023-05-08 02:00",0.444659711431742,"Approved","OW411"
"2023-05-08 03:00",0.440661435006855,"Approved","OW411"
"2023-05-08 04:00",0.434663158581968,"Approved","OW411"
"2023-05-08 05:00",0.43066488215708,"Approved","OW411"
"2023-05-08 06:00",0.425666605732193,"Approved","OW411"
"2023-05-08 07:00",0.422668329307306,"Approved","OW411"
"2023-05-08 08:00",0.419670052882418,"Approved","OW411"
"2023-05-08 09:00",0.415671776457531,"Approved","OW411"
"2023-05-08 10:00",0.414673500032643,"Approved","OW411"
"2023-05-08 11:00",0.410675223607756,"Approved","OW411"
"2023-05-08 12:00",0.408676947182869,"Approved","OW411"
"2023-05-08 13:00",0.405678670757981,"Approved","OW411"
"2023-05-08 14:00",0.404680394333094,"Approved","OW411"
"2023-05-08 15:00",0.402682117908207,"Approved","OW411"
"2023-05-08 16:00",0.399683841483319,"Approved","OW411"
"2023-05-08 17:00",0.399685565058432,"Approved","OW411"
"2023-05-08 18:00",0.400687288633544,"Approved","OW411"
"2023-05-08 19:00",0.401689012208657,"Approved","OW411"
"2023-05-08 20:00",0.40069073578377,"Approved","OW411"
"2023-05-08 21:00",0.401692459358882,"Approved","OW411"
"2023-05-08 22:00",0.401694182933995,"Approved","OW411"
"2023-05-08 23:00",0.404695906509108,"Approved","OW411"
"2023-05-09 00:00",0.40369763008422,"Approved","OW411"
"2023-05-09 01:00",0.397699353659333,"Approved","OW411"
"2023-05-09 02:00",0.394701077234445,"Approved","OW411"
"2023-05-09 03:00",0.390702800809558,"Approved","OW411"
"2023-05-09 04:00",0.385704524384671,"Approved","OW411"
"2023-05-09 05:00",0.379706247959783,"Approved","OW411"
"2023-05-09 06:00",0.376707971534896,"Approved","OW411"
"2023-05-09 07:00",0.370709695110008,"Approved","OW411"
"2023-05-09 08:00",0.368711418685121,"Approved","OW411"
"2023-05-09 09:00",0.367713142260234,"Approved","OW411"
"2023-05-09 10:00",0.363714865835346,"Approved","OW411"
"2023-05-09 11:00",0.360716589410459,"Approved","OW411"
"2023-05-09 12:00",0.362718312985572,"Approved","OW411"
"2023-05-09 13:00",0.358720036560684,"Approved","OW411"
"2023-05-09 14:00",0.356721760135797,"Approved","OW411"
"2023-05-09 15:00",0.355723483710909,"Approved","OW411"
"2023-05-09 16:00",0.353725207286022,"Approved","OW411"
"2023-05-09 17:00",0.354726930861135,"Approved","OW411"
"2023-05-09 18:00",0.357728654436247,"Approved","OW411"
"2023-05-09 19:00",0.36073037801136,"Approved","OW411"
"2023-05-09 20:00",0.355732101586473,"Approved","OW411"
"2023-05-09 21:00",0.358733825161585,"Approved","OW411"
"2023-05-09 22:00",0.359735548736698,"Approved","OW411"
"2023-05-09 23:00",0.35873727231181,"Approved","OW411"
"2023-05-10 00:00",0.359738995886923,"Approved","OW411"
"2023-05-10 01:00",0.357740719462036,"Approved","OW411"
"2023-05-10 02:00",0.357742443037148,"Approved","OW411"
"2023-05-10 03:00",0.355744166612261,"Approved","OW411"
"2023-05-10 04:00",0.350745890187374,"Approved","OW411"
"2023-05-10 05:00",0.346747613762486,"Approved","OW411"
"2023-05-10 06:00",0.341749337337599,"Approved","OW411"
"2023-05-10 07:00",0.338751060912711,"Approved","OW411"
"2023-05-10 08:00",0.332752784487824,"Approved","OW411"
"2023-05-10 09:00",0.331754508062937,"Approved","OW411"
"2023-05-10 10:00",0.329756231638049,"Approved","OW411"
"2023-05-10 11:00",0.326757955213162,"Approved","OW411"
"2023-05-10 12:00",0.324759678788274,"Approved","OW411"
"2023-05-10 13:00",0.324761402363387,"Approved","OW411"
"2023-05-10 14:00",0.3217631259385,"Approved","OW411"
"2023-05-10 15:00",0.321764849513612,"Approved","OW411"
"2023-05-10 16:00",0.317766573088725,"Approved","OW411"
"2023-05-10 17:00",0.320768296663838,"Approved","OW411"
"2023-05-10 18:00",0.31977002023895,"Approved","OW411"
"2023-05-10 19:00",0.318771743814063,"Approved","OW411"
"2023-05-10 20:00",0.319773467389175,"Approved","OW411"
"2023-05-10 21:00",0.317775190964288,"Approved","OW411"
"2023-05-10 22:00",0.319776914539401,"Approved","OW411"
"2023-05-10 23:00",0.321778638114513,"Approved","OW411"
"2023-05-11 00:00",0.319780361689626,"Approved","OW411"
"2023-05-11 01:00",0.321782085264739,"Approved","OW411"
"2023-05-11 02:00",0.322783808839851,"Approved","OW411"
"2023-05-11 03:00",0.321785532414964,"Approved","OW411"
"2023-05-11 04:00",0.321787255990076,"Approved","OW411"
"2023-05-11 05:00",0.315788979565189,"Approved","OW411"
"2023-05-11 06:00",0.311790703140302,"Approved","OW411"
"2023-05-11 07:00",0.308792426715414,"Approved","OW411"
"2023-05-11 08:00",0.305794150290527,"Approved","OW411"
"2023-05-11 09:00",0.301795873865639,"Approved","OW411"
"2023-05-11 10:00",0.298797597440752,"Approved","OW411"
"2023-05-11 11:00",0.297799321015865,"Approved","OW411"
"2023-05-11 12:00",0.296801044590977,"Approved","OW411"
"2023-05-11 13:00",0.29580276816609,"Approved","OW411"
"2023-05-11 14:00",0.295804491741203,"Approved","OW411"
"2023-05-11 15:00",0.296806215316315,"Approved","OW411"
"2023-05-11 16:00",0.294807938891428,"Approved","OW411"
"2023-05-11 17:00",0.29580966246654,"Approved","OW411"
"2023-05-11 18:00",0.295811386041653,"Approved","OW411"
"2023-05-11 19:00",0.294813109616766,"Approved","OW411"
"2023-05-11 20:00",0.293814833191878,"Approved","OW411"
"2023-05-11 21:00",0.294816556766991,"Approved","OW411"
"2023-05-11 22:00",0.294818280342104,"Approved","OW411"
"2023-05-11 23:00",0.295820003917216,"Approved","OW411"
"2023-05-12 00:00",0.295821727492329,"Approved","OW411"
"2023-05-12 01:00",0.298823451067441,"Approved","OW411"
"2023-05-12 02:00",0.297825174642554,"Approved","OW411"
"2023-05-12 03:00",0.300826898217667,"Approved","OW411"
"2023-05-12 04:00",0.299828621792779,"Approved","OW411"
"2023-05-12 05:00",0.297830345367892,"Approved","OW411"
"2023-05-12 06:00",0.295832068943004,"Approved","OW411"
"2023-05-12 07:00",0.294833792518117,"Approved","OW411"
"2023-05-12 08:00",0.29183551609323,"Approved","OW411"
"2023-05-12 09:00",0.289837239668342,"Approved","OW411"
"2023-05-12 10:00",0.287838963243455,"Approved","OW411"
"2023-05-12 11:00",0.287840686818568,"Approved","OW411"
"2023-05-12 12:00",0.28884241039368,"Approved","OW411"
"2023-05-12 13:00",0.287844133968793,"Approved","OW411"
"2023-05-12 14:00",0.289845857543905,"Approved","OW411"
"2023-05-12 15:00",0.289847581119018,"Approved","OW411"
"2023-05-12 16:00",0.289849304694131,"Approved","OW411"
"2023-05-12 17:00",0.297851028269243,"Approved","OW411"
"2023-05-12 18:00",0.310852751844356,"Approved","OW411"
"2023-05-12 19:00",0.325854475419469,"Approved","OW411"
"2023-05-12 20:00",0.338856198994581,"Approved","OW411"
"2023-05-12 21:00",0.347857922569694,"Approved","OW411"
"2023-05-12 22:00",0.357859646144806,"Approved","OW411"
"2023-05-12 23:00",0.366861369719919,"Approved","OW411"
"2023-05-13 00:00",0.374863093295032,"Approved","OW411"
"2023-05-13 01:00",0.382864816870144,"Approved","OW411"
"2023-05-13 02:00",0.386866540445257,"Approved","OW411"
"2023-05-13 03:00",0.39386826402037,"Approved","OW411"
"2023-05-13 04:00",0.398869987595482,"Approved","OW411"
"2023-05-13 05:00",0.399871711170595,"Approved","OW411"
"2023-05-13 06:00",0.400873434745707,"Approved","OW411"
"2023-05-13 07:00",0.40187515832082,"Approved","OW411"
"2023-05-13 08:00",0.401876881895933,"Approved","OW411"
"2023-05-13 09:00",0.399878605471045,"Approved","OW411"
"2023-05-13 10:00",0.398880329046158,"Approved","OW411"
"2023-05-13 11:00",0.398882052621271,"Approved","OW411"
"2023-05-13 12:00",0.398883776196383,"Approved","OW411"
"2023-05-13 13:00",0.399885499771496,"Approved","OW411"
"2023-05-13 14:00",0.400887223346608,"Approved","OW411"
"2023-05-13 15:00",0.400888946921721,"Approved","OW411"
"2023-05-13 16:00",0.399890670496834,"Approved","OW411"
"2023-05-13 17:00",0.401892394071946,"Approved","OW411"
"2023-05-13 18:00",0.398894117647059,"Approved","OW411"
"2023-05-13 19:00",0.399895841222171,"Approved","OW411"
"2023-05-13 20:00",0.407897564797284,"Approved","OW411"
"2023-05-13 21:00",0.421899288372397,"Approved","OW411"
"2023-05-13 22:00",0.433901011947509,"Approved","OW411"
"2023-05-13 23:00",0.447902735522622,"Approved","OW411"
"2023-05-14 00:00",0.454904459097735,"Approved","OW411"
"2023-05-14 01:00",0.465906182672847,"Approved","OW411"
"2023-05-14 02:00",0.47390790624796,"Approved","OW411"
"2023-05-14 03:00",0.481909629823072,"Approved","OW411"
"2023-05-14 04:00",0.487911353398185,"Approved","OW411"
"2023-05-14 05:00",0.490913076973298,"Approved","OW411"
"2023-05-14 06:00",0.49391480054841,"Approved","OW411"
"2023-05-14 07:00",0.495916524123523,"Approved","OW411"
"2023-05-14 08:00",0.494918247698636,"Approved","OW411"
"2023-05-14 09:00",0.492919971273748,"Approved","OW411"
"2023-05-14 10:00",0.491921694848861,"Approved","OW411"
"2023-05-14 11:00",0.489923418423973,"Approved","OW411"
"2023-05-14 12:00",0.487925141999086,"Approved","OW411"
"2023-05-14 13:00",0.489926865574199,"Approved","OW411"
"2023-05-14 14:00",0.489928589149311,"Approved","OW411"
"2023-05-14 15:00",0.487930312724424,"Approved","OW411"
"2023-05-14 16:00",0.485932036299536,"Approved","OW411"
"2023-05-14 17:00",0.483933759874649,"Approved","OW411"
"2023-05-14 18:00",0.480935483449762,"Approved","OW411"
"2023-05-14 19:00",0.480937207024874,"Approved","OW411"
"2023-05-14 20:00",0.476938930599987,"Approved","OW411"
"2023-05-14 21:00",0.4709406541751,"Approved","OW411"
"2023-05-14 22:00",0.465942377750212,"Approved","OW411"
"2023-05-14 23:00",0.460944101325325,"Approved","OW411"
"2023-05-15 00:00",0.457945824900437,"Approved","OW411"
"2023-05-15 01:00",0.45594754847555,"Approved","OW411"
"2023-05-15 02:00",0.451949272050663,"Approved","OW411"
"2023-05-15 03:00",0.448950995625775,"Approved","OW411"
"2023-05-15 04:00",0.450952719200888,"Approved","OW411"
"2023-05-15 05:00",0.445954442776001,"Approved","OW411"
"2023-05-15 06:00",0.442956166351113,"Approved","OW411"
"2023-05-15 07:00",0.440957889926226,"Approved","OW411"
"2023-05-15 08:00",0.435959613501338,"Approved","OW411"
"2023-05-15 09:00",0.431961337076451,"Approved","OW411"
"2023-05-15 10:00",0.429963060651564,"Approved","OW411"
"2023-05-15 11:00",0.424964784226676,"Approved","OW411"
"2023-05-15 12:00",0.421966507801789,"Approved","OW411"
"2023-05-15 13:00",0.420968231376901,"Approved","OW411"
"2023-05-15 14:00",0.417969954952014,"Approved","OW411"
"2023-05-15 15:00",0.418971678527127,"Approved","OW411"
"2023-05-15 16:00",0.415973402102239,"Approved","OW411"
"2023-05-15 17:00",0.415975125677352,"Approved","OW411"
"2023-05-15 18:00",0.426976849252465,"Approved","OW411"
"2023-05-15 19:00",0.440978572827577,"Approved","OW411"
"2023-05-15 20:00",0.45298029640269,"Approved","OW411"
"2023-05-15 21:00",0.461982019977802,"Approved","OW411"
"2023-05-15 22:00",0.468983743552915,"Approved","OW411"
"2023-05-15 23:00",0.472985467128028,"Approved","OW411"
"2023-05-16 00:00",0.47798719070314,"Approved","OW411"
"2023-05-16 01:00",0.482988914278253,"Approved","OW411"
"2023-05-16 02:00",0.486990637853366,"Approved","OW411"
"2023-05-16 03:00",0.489992361428478,"Approved","OW411"
"2023-05-16 04:00",0.495994085003591,"Approved","OW411"
"2023-05-16 05:00",0.495995808578703,"Approved","OW411"
"2023-05-16 06:00",0.499997532153816,"Approved","OW411"
"2023-05-16 07:00",0.500999255728929,"Approved","OW411"
"2023-05-16 08:00",0.503000979304041,"Approved","OW411"
"2023-05-16 09:00",0.500002702879154,"Approved","OW411"
"2023-05-16 10:00",0.500004426454266,"Approved","OW411"
"2023-05-16 11:00",0.499006150029379,"Approved","OW411"
"2023-05-16 12:00",0.498007873604492,"Approved","OW411"
"2023-05-16 13:00",0.498009597179604,"Approved","OW411"
"2023-05-16 14:00",0.498011320754717,"Approved","OW411"
"2023-05-16 15:00",0.50101304432983,"Approved","OW411"
"2023-05-16 16:00",0.501014767904942,"Approved","OW411"
"2023-05-16 17:00",0.503016491480055,"Approved","OW411"
"2023-05-16 18:00",0.504018215055167,"Approved","OW411"
"2023-05-16 19:00",0.50301993863028,"Approved","OW411"
"2023-05-16 20:00",0.500021662205393,"Approved","OW411"
"2023-05-16 21:00",0.496023385780505,"Approved","OW411"
"2023-05-16 22:00",0.495025109355618,"Approved","OW411"
"2023-05-16 23:00",0.489026832930731,"Approved","OW411"
"2023-05-17 00:00",0.483028556505843,"Approved","OW411"
"2023-05-17 01:00",0.479030280080956,"Approved","OW411"
"2023-05-17 02:00",0.478032003656068,"Approved","OW411"
"2023-05-17 03:00",0.474033727231181,"Approved","OW411"
"2023-05-17 04:00",0.472035450806294,"Approved","OW411"
"2023-05-17 05:00",0.473037174381406,"Approved","OW411"
"2023-05-17 06:00",0.472038897956519,"Approved","OW411"
"2023-05-17 07:00",0.469040621531632,"Approved","OW411"
"2023-05-17 08:00",0.468042345106744,"Approved","OW411"
"2023-05-17 09:00",0.465044068681857,"Approved","OW411"
"2023-05-17 10:00",0.463045792256969,"Approved","OW411"
"2023-05-17 11:00",0.458047515832082,"Approved","OW411"
"2023-05-17 12:00",0.456049239407195,"Approved","OW411"
"2023-05-17 13:00",0.455050962982307,"Approved","OW411"
"2023-05-17 14:00",0.45305268655742,"Approved","OW411"
"2023-05-17 15:00",0.464054410132533,"Approved","OW411"
"2023-05-17 16:00",0.480056133707645,"Approved","OW411"
"2023-05-17 17:00",0.495057857282758,"Approved","OW411"
"2023-05-17 18:00",0.50805958085787,"Approved","OW411"
"2023-05-17 19:00",0.516061304432983,"Approved","OW411"
"2023-05-17 20:00",0.523063028008096,"Approved","OW411"
"2023-05-17 21:00",0.528064751583208,"Approved","OW411"
"2023-05-17 22:00",0.528066475158321,"Approved","OW411"
"2023-05-17 23:00",0.526068198733433,"Approved","OW411"
"2023-05-18 00:00",0.524069922308546,"Approved","OW411"
"2023-05-18 01:00",0.521071645883659,"Approved","OW411"
"2023-05-18 02:00",0.522073369458771,"Approved","OW411"
"2023-05-18 03:00",0.520075093033884,"Approved","OW411"
"2023-05-18 04:00",0.521076816608997,"Approved","OW411"
"2023-05-18 05:00",0.519078540184109,"Approved","OW411"
"2023-05-18 06:00",0.520080263759222,"Approved","OW411"
"2023-05-18 07:00",0.519081987334334,"Approved","OW411"
"2023-05-18 08:00",0.520083710909447,"Approved","OW411"
"2023-05-18 09:00",0.51808543448456,"Approved","OW411"
"2023-05-18 10:00",0.518087158059672,"Approved","OW411"
"2023-05-18 11:00",0.517088881634785,"Approved","OW411"
"2023-05-18 12:00",0.514090605209897,"Approved","OW411"
"2023-05-18 13:00",0.51509232878501,"Approved","OW411"
"2023-05-18 14:00",0.515094052360123,"Approved","OW411"
"2023-05-18 15:00",0.517095775935235,"Approved","OW411"
"2023-05-18 16:00",0.516097499510348,"Approved","OW411"
"2023-05-18 17:00",0.518099223085461,"Approved","OW411"
"2023-05-18 18:00",0.521100946660573,"Approved","OW411"
"2023-05-18 19:00",0.524102670235686,"Approved","OW411"
"2023-05-18 20:00",0.522104393810798,"Approved","OW411"
"2023-05-18 21:00",0.519106117385911,"Approved","OW411"
"2023-05-18 22:00",0.518107840961024,"Approved","OW411"
"2023-05-18 23:00",0.515109564536136,"Approved","OW411"
"2023-05-19 00:00",0.511111288111249,"Approved","OW411"
"2023-05-19 01:00",0.503113011686362,"Approved","OW411"
"2023-05-19 02:00",0.503114735261474,"Approved","OW411"
"2023-05-19 03:00",0.497116458836587,"Approved","OW411"
"2023-05-19 04:00",0.492118182411699,"Approved","OW411"
"2023-05-19 05:00",0.490119905986812,"Approved","OW411"
"2023-05-19 06:00",0.495121629561925,"Approved","OW411"
"2023-05-19 07:00",0.494123353137037,"Approved","OW411"
"2023-05-19 08:00",0.49212507671215,"Approved","OW411"
"2023-05-19 09:00",0.489126800287263,"Approved","OW411"
"2023-05-19 10:00",0.489128523862375,"Approved","OW411"
"2023-05-19 11:00",0.487130247437488,"Approved","OW411"
"2023-05-19 12:00",0.4861319710126,"Approved","OW411"
"2023-05-19 13:00",0.485133694587713,"Approved","OW411"
"2023-05-19 14:00",0.484135418162826,"Approved","OW411"
"2023-05-19 15:00",0.485137141737938,"Approved","OW411"
"2023-05-19 16:00",0.485138865313051,"Approved","OW411"
"2023-05-19 17:00",0.486140588888163,"Approved","OW411"
"2023-05-19 18:00",0.489142312463276,"Approved","OW411"
"2023-05-19 19:00",0.489144036038389,"Approved","OW411"
"2023-05-19 20:00",0.489145759613501,"Approved","OW411"
"2023-05-19 21:00",0.488147483188614,"Approved","OW411"
"2023-05-19 22:00",0.485149206763727,"Approved","OW411"
"2023-05-19 23:00",0.481150930338839,"Approved","OW411"
"2023-05-20 00:00",0.475152653913952,"Approved","OW411"
"2023-05-20 01:00",0.468154377489064,"Approved","OW411"
"2023-05-20 02:00",0.461156101064177,"Approved","OW411"
"2023-05-20 03:00",0.45915782463929,"Approved","OW411"
"2023-05-20 04:00",0.455159548214402,"Approved","OW411"
"2023-05-20 05:00",0.450161271789515,"Approved","OW411"
"2023-05-20 06:00",0.447162995364628,"Approved","OW411"
"2023-05-20 07:00",0.44816471893974,"Approved","OW411"
"2023-05-20 08:00",0.444166442514853,"Approved","OW411"
"2023-05-20 09:00",0.444168166089965,"Approved","OW411"
"2023-05-20 10:00",0.442169889665078,"Approved","OW411"
"2023-05-20 11:00",0.439171613240191,"Approved","OW411"
"2023-05-20 12:00",0.438173336815303,"Approved","OW411"
"2023-05-20 13:00",0.441175060390416,"Approved","OW411"
"2023-05-20 14:00",0.439176783965529,"Approved","OW411"
"2023-05-20 15:00",0.435178507540641,"Approved","OW411"
"2023-05-20 16:00",0.438180231115754,"Approved","OW411"
"2023-05-20 17:00",0.440181954690866,"Approved","OW411"
"2023-05-20 18:00",0.440183678265979,"Approved","OW411"
"2023-05-20 19:00",0.440185401841092,"Approved","OW411"
"2023-05-20 20:00",0.445187125416204,"Approved","OW411"
"2023-05-20 21:00",0.442188848991317,"Approved","OW411"
"2023-05-20 22:00",0.440190572566429,"Approved","OW411"
"2023-05-20 23:00",0.433192296141542,"Approved","OW411"
"2023-05-21 00:00",0.433194019716655,"Approved","OW411"
"2023-05-21 01:00",0.427195743291767,"Approved","OW411"
"2023-05-21 02:00",0.42319746686688,"Approved","OW411"
"2023-05-21 03:00",0.413199190441993,"Approved","OW411"
"2023-05-21 04:00",0.411200914017105,"Approved","OW411"
"2023-05-21 05:00",0.403202637592218,"Approved","OW411"
"2023-05-21 06:00",0.40520436116733,"Approved","OW411"
"2023-05-21 07:00",0.399206084742443,"Approved","OW411"
"2023-05-21 08:00",0.393207808317556,"Approved","OW411"
"2023-05-21 09:00",0.393209531892668,"Approved","OW411"
"2023-05-21 10:00",0.393211255467781,"Approved","OW411"
"2023-05-21 11:00",0.387212979042894,"Approved","OW411"
"2023-05-21 12:00",0.392214702618006,"Approved","OW411"
"2023-05-21 13:00",0.393216426193119,"Approved","OW411"
"2023-05-21 14:00",0.386218149768231,"Approved","OW411"
"2023-05-21 15:00",0.388219873343344,"Approved","OW411"
"2023-05-21 16:00",0.380221596918457,"Approved","OW411"
"2023-05-21 17:00",0.382223320493569,"Approved","OW411"
"2023-05-21 18:00",0.380225044068682,"Approved","OW411"
"2023-05-21 19:00",0.384226767643794,"Approved","OW411"
"2023-05-21 20:00",0.386228491218907,"Approved","OW411"
"2023-05-21 21:00",0.38123021479402,"Approved","OW411"
"2023-05-21 22:00",0.381231938369132,"Approved","OW411"
"2023-05-21 23:00",0.377233661944245,"Approved","OW411"
"2023-05-22 00:00",0.371235385519358,"Approved","OW411"
"2023-05-22 01:00",0.36723710909447,"Approved","OW411"
"2023-05-22 02:00",0.361238832669583,"Approved","OW411"
"2023-05-22 03:00",0.357240556244695,"Approved","OW411"
"2023-05-22 04:00",0.352242279819808,"Approved","OW411"
"2023-05-22 05:00",0.346244003394921,"Approved","OW411"
"2023-05-22 06:00",0.341245726970033,"Approved","OW411"
"2023-05-22 07:00",0.338247450545146,"Approved","OW411"
"2023-05-22 08:00",0.338249174120259,"Approved","OW411"
"2023-05-22 09:00",0.333250897695371,"Approved","OW411"
"2023-05-22 10:00",0.332252621270484,"Approved","OW411"
"2023-05-22 11:00",0.329254344845596,"Approved","OW411"
"2023-05-22 12:00",0.329256068420709,"Approved","OW411"
"2023-05-22 13:00",0.327257791995822,"Approved","OW411"
"2023-05-22 14:00",0.325259515570934,"Approved","OW411"
"2023-05-22 15:00",0.325261239146047,"Approved","OW411"
"2023-05-22 16:00",0.32326296272116,"Approved","OW411"
"2023-05-22 17:00",0.325264686296272,"Approved","OW411"
"2023-05-22 18:00",0.327266409871385,"Approved","OW411"
"2023-05-22 19:00",0.329268133446497,"Approved","OW411"
"2023-05-22 20:00",0.32826985702161,"Approved","OW411"
"2023-05-22 21:00",0.332271580596723,"Approved","OW411"
"2023-05-22 22:00",0.332273304171835,"Approved","OW411"
"2023-05-22 23:00",0.331275027746948,"Approved","OW411"
"2023-05-23 00:00",0.33127675132206,"Approved","OW411"
"2023-05-23 01:00",0.327278474897173,"Approved","OW411"
"2023-05-23 02:00",0.324280198472286,"Approved","OW411"
"2023-05-23 03:00",0.321281922047398,"Approved","OW411"
"2023-05-23 04:00",0.323283645622511,"Approved","OW411"
"2023-05-23 05:00",0.330285369197624,"Approved","OW411"
"2023-05-23 06:00",0.345287092772736,"Approved","OW411"
"2023-05-23 07:00",0.354288816347849,"Approved","OW411"
"2023-05-23 08:00",0.360290539922961,"Approved","OW411"
"2023-05-23 09:00",0.368292263498074,"Approved","OW411"
"2023-05-23 10:00",0.376293987073187,"Approved","OW411"
"2023-05-23 11:00",0.384295710648299,"Approved","OW411"
"2023-05-23 12:00",0.385297434223412,"Approved","OW411"